Weather History for PAPO - October, 2013

Change the Weather History Date:

Wednesday, October 30, 2013

  Actual Average Record
Temperature  
Mean Temperature 26 °F -  
Max Temperature 28 °F 23 °F 37 °F (2002)
Min Temperature 24 °F 15 °F 1 °F (2001)
Degree Days  
Heating Degree Days 39    
Moisture  
Dew Point 19 °F    
Average Humidity 76    
Maximum Humidity 80    
Minimum Humidity 69    
Precipitation  
Precipitation 0.00 in - - ()
Sea Level Pressure  
Sea Level Pressure 29.46 in    
Wind  
Wind Speed 11 mph (NNE)    
Max Wind Speed 21 mph    
Max Gust Speed 23 mph    
Visibility 10 miles    
Events      
Averages and records for this station are not official NWS values.
T = Trace of Precipitation, MM = Missing Value Source: NWS Daily Summary

Daily Weather History Graph

Daily Weather History Graph

Search for Another Location

Airport or City:

Trip Planner

Search our weather history database for the weather conditions in past years. The results will help you decide how hot, cold, wet, or windy it might be!

Date:

Astronomy

Oct. 30, 2013 Rise Set
Actual Time 11:14 AM AKDT 6:25 PM AKDT
Civil Twilight 10:09 AM AKDT 7:30 PM AKDT
Nautical Twilight 9:01 AM AKDT 8:38 PM AKDT
Astronomical Twilight 7:56 AM AKDT 9:43 PM AKDT
Moon 5:28 AM AKDT (10/30) 5:51 PM AKDT (10/30)
Length of Visible Light 9h 21m
Length of Day
7h 10m
Waning Crescent, 16% of the Moon is Illuminated
Oct 30
Waning Crescent
Nov 3
New
Nov 9
First Quarter
Nov 17
Full
Nov 25
Last Quarter

Hourly Weather History & Observations

Time (AKDT) Temp. Windchill Dew Point Humidity Pressure Visibility Wind Dir Wind Speed Gust Speed Precip Events Conditions
12:16 AM 24.8 °F 11.9 °F 19.4 °F 80% 29.50 in 10.0 mi NNE 16.1 mph - N/A   Overcast
12:36 AM 24.8 °F 12.4 °F 19.4 °F 80% 29.50 in 10.0 mi NE 15.0 mph - N/A   Overcast
12:56 AM 24.8 °F 12.9 °F 19.4 °F 80% 29.50 in 10.0 mi NE 13.8 mph - N/A   Overcast
1:16 AM 24.8 °F 11.9 °F 19.4 °F 80% 29.50 in 10.0 mi NE 16.1 mph - N/A   Overcast
1:36 AM 24.8 °F 12.4 °F 19.4 °F 80% 29.50 in 10.0 mi NE 15.0 mph 20.7 mph N/A   Overcast
1:56 AM 24.8 °F 11.9 °F 17.6 °F 74% 29.50 in 10.0 mi NE 16.1 mph 23.0 mph N/A   Overcast
2:16 AM 24.8 °F 11.9 °F 17.6 °F 74% 29.50 in 10.0 mi NNE 16.1 mph 19.6 mph N/A   Overcast
2:36 AM 24.8 °F 12.9 °F 17.6 °F 74% 29.49 in 10.0 mi NE 13.8 mph 19.6 mph N/A   Overcast
2:56 AM 24.8 °F 12.9 °F 17.6 °F 74% 29.49 in 10.0 mi NE 13.8 mph 18.4 mph N/A   Overcast
3:16 AM 24.8 °F 11.9 °F 17.6 °F 74% 29.48 in 10.0 mi NNE 16.1 mph - N/A   Overcast
3:36 AM 24.8 °F 12.9 °F 19.4 °F 80% 29.48 in 10.0 mi ENE 13.8 mph 18.4 mph N/A   Overcast
3:56 AM 24.8 °F 14.6 °F 19.4 °F 80% 29.48 in 9.0 mi ENE 10.4 mph - N/A   Overcast
4:16 AM 24.8 °F 15.3 °F 17.6 °F 74% 29.48 in 8.0 mi East 9.2 mph - N/A   Overcast
4:36 AM 24.8 °F 16.9 °F 17.6 °F 74% 29.48 in 7.0 mi East 6.9 mph - N/A   Overcast
4:56 AM 24.8 °F 16.9 °F 19.4 °F 80% 29.47 in 10.0 mi ENE 6.9 mph - N/A   Overcast
5:16 AM 24.8 °F 16.9 °F 19.4 °F 80% 29.46 in 10.0 mi NE 6.9 mph - N/A   Overcast
5:36 AM 24.8 °F 19.1 °F 19.4 °F 80% 29.46 in 10.0 mi ENE 4.6 mph - N/A   Overcast
5:56 AM 24.8 °F 16.1 °F 19.4 °F 80% 29.46 in 10.0 mi NE 8.1 mph - N/A   Overcast
6:16 AM 26.6 °F 15.2 °F 19.4 °F 74% 29.45 in 10.0 mi NNE 13.8 mph - N/A   Overcast
6:36 AM 24.8 °F - 17.6 °F 74% 29.45 in 10.0 mi Calm Calm - N/A   Overcast
6:56 AM 24.8 °F 17.9 °F 17.6 °F 74% 29.45 in 10.0 mi East 5.8 mph - N/A   Overcast
7:16 AM 24.8 °F 19.1 °F 19.4 °F 80% 29.45 in 10.0 mi East 4.6 mph - N/A   Overcast
7:36 AM 24.8 °F 17.9 °F 17.6 °F 74% 29.45 in 10.0 mi East 5.8 mph - N/A   Overcast
7:56 AM 24.8 °F 19.1 °F 17.6 °F 74% 29.44 in 10.0 mi East 4.6 mph - N/A   Overcast
8:16 AM 24.8 °F 20.5 °F 17.6 °F 74% 29.44 in 10.0 mi East 3.5 mph - N/A   Overcast
8:36 AM 24.8 °F - 19.4 °F 80% 29.44 in 10.0 mi Calm Calm - N/A   Overcast
8:56 AM 24.8 °F 17.9 °F 17.6 °F 74% 29.44 in 10.0 mi East 5.8 mph - N/A   Overcast
9:16 AM 24.8 °F 20.5 °F 19.4 °F 80% 29.44 in 8.0 mi East 3.5 mph - N/A   Overcast
9:56 AM 26.6 °F - 19.4 °F 74% 29.44 in 10.0 mi Calm Calm - N/A   Overcast
10:16 AM 26.6 °F 22.6 °F 19.4 °F 74% 29.44 in 10.0 mi North 3.5 mph - N/A   Overcast
10:36 AM 26.6 °F - 17.6 °F 69% 29.44 in 10.0 mi Calm Calm - N/A   Overcast
10:56 AM 26.6 °F - 19.4 °F 74% 29.44 in 10.0 mi Calm Calm - N/A   Overcast
11:16 AM 24.8 °F 19.1 °F 19.4 °F 80% 29.44 in 10.0 mi NNE 4.6 mph - N/A   Overcast
11:36 AM 26.6 °F 22.6 °F 19.4 °F 74% 29.44 in 10.0 mi ENE 3.5 mph - N/A   Overcast
11:56 AM 24.8 °F - 19.4 °F 80% 29.44 in 10.0 mi Calm Calm - N/A   Overcast
12:16 PM 24.8 °F - 19.4 °F 80% 29.44 in 10.0 mi Calm Calm - N/A   Overcast
12:36 PM 26.6 °F - 19.4 °F 74% 29.44 in 10.0 mi Calm Calm - N/A   Overcast
12:56 PM 26.6 °F - 19.4 °F 74% 29.44 in 10.0 mi Calm Calm - N/A   Overcast
1:16 PM 26.6 °F 21.2 °F 19.4 °F 74% 29.44 in 10.0 mi NW 4.6 mph - N/A   Overcast
1:36 PM 28.4 °F 23.3 °F 21.2 °F 74% 29.44 in 10.0 mi NW 4.6 mph - N/A   Overcast
1:56 PM 28.4 °F 24.6 °F 21.2 °F 74% 29.44 in 10.0 mi NW 3.5 mph - N/A   Overcast
2:16 PM 28.4 °F 22.2 °F 21.2 °F 74% 29.44 in 10.0 mi NNW 5.8 mph - N/A   Overcast
2:36 PM 28.4 °F 20.4 °F 21.2 °F 74% 29.44 in 10.0 mi NW 8.1 mph - N/A   Overcast
2:56 PM 28.4 °F 20.4 °F 19.4 °F 69% 29.44 in 10.0 mi NNW 8.1 mph - N/A   Overcast
3:16 PM 28.4 °F 20.4 °F 21.2 °F 74% 29.44 in 10.0 mi NW 8.1 mph - N/A   Overcast
3:36 PM 28.4 °F 18.5 °F 21.2 °F 74% 29.45 in 10.0 mi NNW 11.5 mph - N/A   Overcast
3:56 PM 26.6 °F 15.2 °F 21.2 °F 80% 29.45 in 10.0 mi NNW 13.8 mph 18.4 mph N/A   Overcast
4:16 PM 26.6 °F 14.3 °F 21.2 °F 80% 29.44 in 10.0 mi NNW 16.1 mph - N/A   Overcast
4:36 PM 26.6 °F 14.7 °F 19.4 °F 74% 29.44 in 10.0 mi North 15.0 mph - N/A   Overcast
4:56 PM 26.6 °F 13.8 °F 19.4 °F 74% 29.44 in 10.0 mi NNW 17.3 mph 21.9 mph N/A   Overcast
5:16 PM 26.6 °F 13.8 °F 19.4 °F 74% 29.45 in 10.0 mi North 17.3 mph - N/A   Overcast
5:36 PM 26.6 °F 13.8 °F 21.2 °F 80% 29.45 in 10.0 mi NNW 17.3 mph 21.9 mph N/A   Overcast
5:56 PM 26.6 °F 14.3 °F 19.4 °F 74% 29.45 in 10.0 mi North 16.1 mph 23.0 mph N/A   Overcast
6:16 PM 26.6 °F 14.3 °F 19.4 °F 74% 29.45 in 10.0 mi NNW 16.1 mph 21.9 mph N/A   Overcast
6:36 PM 26.6 °F 14.3 °F 19.4 °F 74% 29.46 in 10.0 mi North 16.1 mph - N/A   Overcast
6:56 PM 26.6 °F 14.7 °F 19.4 °F 74% 29.46 in 10.0 mi NNW 15.0 mph - N/A   Overcast
7:36 PM 26.6 °F 13.1 °F 19.4 °F 74% 29.47 in 10.0 mi NNW 19.6 mph - N/A   Overcast
7:56 PM 26.6 °F 13.1 °F 19.4 °F 74% 29.47 in 10.0 mi North 19.6 mph - N/A   Overcast
8:16 PM 26.6 °F 13.1 °F 19.4 °F 74% 29.47 in 10.0 mi North 19.6 mph - N/A   Overcast
8:36 PM 26.6 °F 13.8 °F 19.4 °F 74% 29.48 in 10.0 mi NNW 17.3 mph - N/A   Overcast
8:56 PM 26.6 °F 12.7 °F 19.4 °F 74% 29.49 in 10.0 mi North 20.7 mph - N/A   Overcast
9:16 PM 26.6 °F 14.7 °F 19.4 °F 74% 29.49 in 10.0 mi North 15.0 mph - N/A   Overcast
9:36 PM 26.6 °F 13.4 °F 19.4 °F 74% 29.49 in 10.0 mi North 18.4 mph - N/A   Overcast
9:56 PM 26.6 °F 14.3 °F 19.4 °F 74% 29.50 in 10.0 mi North 16.1 mph - N/A   Overcast
10:16 PM 26.6 °F 14.3 °F 17.6 °F 69% 29.50 in 10.0 mi North 16.1 mph 19.6 mph N/A   Overcast